Weather in Troitsa

Russia / Pskov Oblast     56°02′14″N   30°40′03″E
temp.,
°C
wind,
m/s
gust,
m/s
humid.,
%
clouds,
%
prec.,
mm/h
press.,
hPa
HPBL,
m
23 october, sat
sat2300:00+7sw61471100 0.0 9991359
03:00+6sw61283100 0.0 9991136
06:00+5sw51190100 0.4 9971116
09:00+4wsw5128635 1.8 1001756
12:00+6wsw5107643 0.1 10031119
15:00+5wsw51191100 0.6 1004978
18:00+6wsw61382100 0.5 10051275
21:00+3w51296100 4.5 1008822
24 october, sun
sun2400:00+3wnw51296100 1.0 1011825
03:00+3nw5108595 1.1 1014888
06:00+2nw4108997 0.1 1017945
09:00+2nw399091 0.3 1020870
12:00+3nw487594 0.3 10221155
15:00+4nw4769100 0.4 10241333
18:00+1nw387985 0.1 1027423
21:000wnw258768 0.1 1028203
25 october, mon
mon2500:00−1w228922 0.0 102950
03:00−1sw2389100 0.0 102986
06:00−1ssw278798 0.0 1029184
09:000ssw3108384 0.0 1029357
12:00+5sw4107360 0.0 1028581
15:00+6sw410685 0.0 1026873
18:00+4sw412785 0.0 1025410
21:00+3sw4138160 0.0 1025446
26 october, tue
tue2600:00+3sw41381100 0.0 1024437
03:00+2ssw41381100 0.0 1023420
06:00+2ssw41379100 0.0 1021426
09:00+3ssw41377100 0.0 1020448
12:00+6sw41266100 0.0 1019564
15:00+7sw41064100 0.0 1018678
18:00+5ssw41173100 0.0 1018412
21:00+4sw31179100 0.0 1018376
27 october, wed
wed2700:00+4ssw31184100 0.0 1017348
03:00+4ssw31186100 0.0 1015343
06:00+5wsw41292100 0.9 1014601
09:00+6wsw41095100 1.1 1014577
12:00+7w4889100 0.3 1015988
15:00+9w387856 0.4 1016909
18:00+7wnw3979100 0.3 1017558
21:00+6w398597 0.3 1019330